Weather History for Argentia, NL

Change the Weather History Date:

Thursday, September 13, 2012

  Actual Average Record
Temperature  
Mean Temperature 61 °F -  
Max Temperature 68 °F - - ()
Min Temperature 54 °F - - ()
Degree Days  
Heating Degree Days 4    
Growing Degree Days 11 (Base 50)    
Moisture  
Dew Point 55 °F    
Average Humidity 86    
Maximum Humidity 93    
Minimum Humidity 68    
Precipitation  
Precipitation 0.00 in - - ()
Sea Level Pressure  
Sea Level Pressure 30.35 in    
Wind  
Wind Speed 10 mph ()    
Max Wind Speed 18 mph    
Max Gust Speed -    
T = Trace of Precipitation, MM = Missing Value Source: Averaged Metar Reports

Daily Weather History Graph

Daily Weather History Graph

Search for Another Location

Airport:

Trip Planner

Search our weather history database for the weather conditions in past years. The results will help you decide how hot, cold, wet, or windy it might be!

Date:

Astronomy

Sep. 13, 2012 Rise Set
Actual Time 6:41 AM NDT 7:21 PM NDT
Civil Twilight 6:10 AM NDT 7:51 PM NDT
Nautical Twilight 5:33 AM NDT 8:28 PM NDT
Astronomical Twilight 4:55 AM NDT 9:06 PM NDT
Moon 3:46 AM NDT (9/13) 5:46 PM NDT (9/13)
Length of Visible Light 13h 41m
Length of Day
12h 39m
Waning Crescent, 8% of the Moon is Illuminated
Sep 13
Waning Crescent
Sep 15
New
Sep 22
First Quarter
Sep 30
Full
Oct 8
Last Quarter

Hourly Weather History & Observations

Time (NDT) Temp. Dew Point Humidity Pressure Visibility Wind Dir Wind Speed Gust Speed Precip Events Conditions
12:30 AM 58 °F 54 °F 81% 30.35 in - SSW 9.2 mph - -  
12:30 AM 57.7 °F 53.8 °F 87% 30.35 in - SSW 9.2 mph - N/A   Unknown
1:30 AM 56.5 °F 52.7 °F 87% 30.35 in - South 6.9 mph - N/A   Unknown
2:30 AM 56.3 °F 52.5 °F 87% 30.35 in - South 6.9 mph - N/A   Unknown
3:30 AM 56 °F 53 °F 84% 30.35 in - SSW 8.1 mph - -  
3:30 AM 55.9 °F 52.5 °F 88% 30.35 in - SSW 8.1 mph - N/A   Unknown
4:30 AM 55.4 °F 52.2 °F 89% 30.37 in - SSW 8.1 mph - N/A   Unknown
5:30 AM 55.0 °F 52.0 °F 89% 30.38 in - South 6.9 mph - N/A   Unknown
6:30 AM 55 °F 52 °F 86% 30.38 in - South 6.9 mph - -  
6:30 AM 55.0 °F 52.0 °F 89% 30.38 in - South 6.9 mph - N/A   Unknown
7:30 AM 56.1 °F 52.5 °F 88% 30.40 in - South 6.9 mph - N/A   Unknown
8:30 AM 58.6 °F 54.1 °F 85% 30.40 in - SSW 6.9 mph - N/A   Unknown
9:30 AM 61 °F 54 °F 70% 30.40 in - SSW 11.5 mph - -  
9:30 AM 60.8 °F 53.8 °F 78% 30.40 in - SSW 11.5 mph - N/A   Unknown
10:30 AM 62.6 °F 52.0 °F 68% 30.38 in - SSW 11.5 mph - N/A   Unknown
11:30 AM 62.6 °F 58.3 °F 86% 30.38 in - SSW 12.7 mph - N/A   Unknown
12:30 PM 62 °F 58 °F 84% 30.37 in - SSW 13.8 mph - -  
12:30 PM 61.9 °F 58.3 °F 88% 30.37 in - SSW 13.8 mph - N/A   Unknown
1:30 PM 63.0 °F 57.9 °F 84% 30.36 in - SSW 15.0 mph - N/A   Unknown
2:30 PM 62.6 °F 58.3 °F 86% 30.34 in - SSW 17.3 mph - N/A   Unknown
3:30 PM 62 °F 58 °F 83% 30.33 in - SSW 16.1 mph - -  
3:30 PM 62.1 °F 58.1 °F 87% 30.33 in - SSW 16.1 mph - N/A   Unknown
4:30 PM 61.5 °F 57.9 °F 88% 30.32 in - SSW 17.3 mph - N/A   Unknown
5:30 PM 60.6 °F 57.4 °F 89% 30.31 in - SSW 18.4 mph - N/A   Unknown
6:30 PM 59 °F 57 °F 90% 30.31 in - SSW 17.3 mph - -  
6:30 PM 59.4 °F 56.8 °F 91% 30.31 in - SSW 17.3 mph - N/A   Unknown
7:30 PM 58.1 °F 55.9 °F 93% 30.30 in - SSW 17.3 mph - N/A   Unknown
8:30 PM 57.9 °F 55.9 °F 93% 30.30 in - SSW 15.0 mph - N/A   Unknown
9:30 PM 58 °F 56 °F 91% 30.30 in - SW 17.3 mph - -  
9:30 PM 58.1 °F 56.1 °F 93% 30.30 in - SW 17.3 mph - N/A   Unknown
10:30 PM 57.7 °F 55.4 °F 92% 30.30 in - SW 16.1 mph - N/A   Unknown
11:30 PM 57.6 °F 55.6 °F 93% 30.28 in - SW 17.3 mph - N/A   Unknown